Time,TemperatureF,DewpointF,PressureIn,WindDirection,WindDirectionDegrees,WindSpeedMPH,WindSpeedGustMPH,Humidity,HourlyPrecipIn,Conditions,Clouds,dailyrainin,SoftwareType,DateUTC
2013-05-29 00:00:00,57.2,50.8,30.15,SSW,209,0.0,0.0,79,0.00,,---,0.12,VWS V14.01,2013-05-29 04:00:00,
2013-05-29 00:01:00,57.2,50.8,30.15,SSW,208,0.0,0.0,79,0.00,,---,0.00,VWS V14.01,2013-05-29 04:01:00,
2013-05-29 00:02:00,57.2,50.8,30.15,SSW,208,0.0,0.0,79,0.00,,---,0.00,VWS V14.01,2013-05-29 04:02:00,
2013-05-29 00:07:00,57.2,50.8,30.15,SSW,209,0.0,0.0,79,0.00,,---,0.00,VWS V14.01,2013-05-29 04:07:00,
2013-05-29 00:12:00,57.2,50.8,30.15,SSW,208,0.0,0.0,79,0.00,,---,0.00,VWS V14.01,2013-05-29 04:12:00,
2013-05-29 00:17:00,57.2,50.8,30.15,SSW,208,0.0,0.0,79,0.00,,---,0.00,VWS V14.01,2013-05-29 04:17:00,
2013-05-29 00:22:00,57.2,50.8,30.15,SSW,208,0.0,0.0,79,0.00,,---,0.00,VWS V14.01,2013-05-29 04:22:00,
2013-05-29 00:27:00,57.2,50.8,30.15,SSW,208,0.0,0.0,79,0.00,,---,0.00,VWS V14.01,2013-05-29 04:27:00,
2013-05-29 00:32:00,57.2,50.8,30.15,SSW,208,0.0,0.0,79,0.00,,---,0.00,VWS V14.01,2013-05-29 04:32:00,
2013-05-29 00:37:00,57.2,50.8,30.15,SSW,208,0.0,0.0,79,0.00,,---,0.00,VWS V14.01,2013-05-29 04:37:00,
2013-05-29 00:42:00,57.2,50.8,30.15,SSW,208,0.0,0.0,79,0.00,,---,0.00,VWS V14.01,2013-05-29 04:42:00,
2013-05-29 00:47:00,57.2,50.8,30.15,SSW,209,0.0,0.0,79,0.00,,---,0.00,VWS V14.01,2013-05-29 04:47:00,
2013-05-29 00:52:00,57.2,50.8,30.15,SSW,208,0.0,0.0,79,0.00,,---,0.00,VWS V14.01,2013-05-29 04:52:00,
2013-05-29 00:57:00,57.2,50.8,30.15,SSW,208,0.0,0.0,79,0.00,,---,0.00,VWS V14.01,2013-05-29 04:57:00,
2013-05-29 01:02:00,57.2,50.8,30.15,SSW,208,0.0,0.0,79,0.00,,---,0.00,VWS V14.01,2013-05-29 05:02:00,
2013-05-29 01:07:00,57.2,50.8,30.12,SSW,208,0.0,0.0,79,0.00,,---,0.00,VWS V14.01,2013-05-29 05:07:00,
2013-05-29 01:12:00,57.2,50.8,30.12,SSW,208,0.0,0.0,79,0.00,,---,0.00,VWS V14.01,2013-05-29 05:12:00,
2013-05-29 01:17:00,57.2,50.8,30.12,SSW,208,0.0,0.0,79,0.00,,---,0.00,VWS V14.01,2013-05-29 05:17:00,
2013-05-29 01:22:00,57.2,50.8,30.12,SSW,208,0.0,0.0,79,0.00,,---,0.00,VWS V14.01,2013-05-29 05:22:00,
2013-05-29 01:27:00,57.2,50.8,30.12,SSW,208,0.0,0.0,79,0.00,,---,0.00,VWS V14.01,2013-05-29 05:27:00,
2013-05-29 01:32:00,57.2,50.8,30.12,SSW,208,0.0,0.0,79,0.00,,---,0.00,VWS V14.01,2013-05-29 05:32:00,
2013-05-29 01:37:00,57.2,50.8,30.12,SSW,208,0.0,0.0,79,0.00,,---,0.00,VWS V14.01,2013-05-29 05:37:00,
2013-05-29 01:42:00,57.2,50.8,30.12,SSW,208,0.0,0.0,79,0.00,,---,0.00,VWS V14.01,2013-05-29 05:42:00,
2013-05-29 01:47:00,57.2,50.8,30.12,SSW,208,0.0,0.0,79,0.00,,---,0.00,VWS V14.01,2013-05-29 05:47:00,
2013-05-29 01:52:00,57.2,50.8,30.12,SSW,208,0.0,0.0,79,0.00,,---,0.00,VWS V14.01,2013-05-29 05:52:00,
2013-05-29 01:57:00,57.2,50.8,30.12,SSW,208,0.0,0.0,79,0.00,,---,0.00,VWS V14.01,2013-05-29 05:57:00,
2013-05-29 02:02:00,57.2,50.8,30.12,SSW,208,0.0,0.0,79,0.00,,---,0.00,VWS V14.01,2013-05-29 06:02:00,
2013-05-29 02:07:00,57.0,50.6,30.12,SSW,208,0.0,0.0,79,0.00,,---,0.00,VWS V14.01,2013-05-29 06:07:00,
2013-05-29 02:12:00,57.0,50.6,30.12,SSW,208,0.0,0.0,79,0.00,,---,0.00,VWS V14.01,2013-05-29 06:12:00,
2013-05-29 02:17:00,57.0,50.6,30.12,SSW,208,0.0,0.0,79,0.00,,---,0.00,VWS V14.01,2013-05-29 06:17:00,
2013-05-29 02:22:00,57.0,50.9,30.12,SSW,208,0.0,0.0,80,0.00,,---,0.00,VWS V14.01,2013-05-29 06:22:00,
2013-05-29 02:27:00,57.0,50.9,30.12,SSW,208,3.1,3.6,80,0.00,,---,0.00,VWS V14.01,2013-05-29 06:27:00,
2013-05-29 02:32:00,57.0,50.9,30.12,SSW,208,0.0,0.0,80,0.00,,---,0.00,VWS V14.01,2013-05-29 06:32:00,
2013-05-29 02:37:00,57.0,50.9,30.12,SSW,208,0.0,0.0,80,0.00,,---,0.00,VWS V14.01,2013-05-29 06:37:00,
2013-05-29 02:42:00,57.0,50.9,30.12,SSW,208,0.0,0.0,80,0.00,,---,0.00,VWS V14.01,2013-05-29 06:42:00,
2013-05-29 02:47:00,57.0,50.9,30.12,SSW,208,0.0,0.0,80,0.00,,---,0.00,VWS V14.01,2013-05-29 06:47:00,
2013-05-29 02:52:00,57.0,50.9,30.09,SSW,208,0.0,0.0,80,0.00,,---,0.00,VWS V14.01,2013-05-29 06:52:00,
2013-05-29 02:57:00,57.0,50.9,30.09,SSW,208,0.0,0.0,80,0.00,,---,0.00,VWS V14.01,2013-05-29 06:57:00,
2013-05-29 03:02:00,57.0,50.9,30.09,SSW,208,0.0,0.0,80,0.00,,---,0.00,VWS V14.01,2013-05-29 07:02:00,
2013-05-29 03:07:00,57.0,50.9,30.09,SSW,208,0.0,0.0,80,0.00,,---,0.00,VWS V14.01,2013-05-29 07:07:00,
2013-05-29 03:12:00,57.0,50.9,30.09,SSW,208,0.0,0.0,80,0.00,,---,0.00,VWS V14.01,2013-05-29 07:12:00,
2013-05-29 03:17:00,57.0,50.9,30.09,SSW,208,0.0,0.0,80,0.00,,---,0.00,VWS V14.01,2013-05-29 07:17:00,
2013-05-29 03:22:00,57.0,50.9,30.09,SSW,208,0.0,0.0,80,0.00,,---,0.00,VWS V14.01,2013-05-29 07:22:00,
2013-05-29 03:27:00,57.0,50.9,30.09,SSW,208,0.0,0.0,80,0.00,,---,0.00,VWS V14.01,2013-05-29 07:27:00,
2013-05-29 03:32:00,57.0,50.9,30.09,SSW,208,0.0,0.0,80,0.00,,---,0.00,VWS V14.01,2013-05-29 07:32:00,
2013-05-29 03:37:00,57.0,50.9,30.09,SSW,208,0.0,0.0,80,0.00,,---,0.00,VWS V14.01,2013-05-29 07:37:00,
2013-05-29 03:42:00,57.0,50.9,30.09,SSW,208,0.0,0.0,80,0.00,,---,0.00,VWS V14.01,2013-05-29 07:42:00,
2013-05-29 03:47:00,57.0,50.9,30.09,SSW,208,4.0,4.0,80,0.00,,---,0.00,VWS V14.01,2013-05-29 07:47:00,
2013-05-29 03:52:00,57.0,50.9,30.09,SSW,208,0.0,3.1,80,0.00,,---,0.00,VWS V14.01,2013-05-29 07:52:00,
2013-05-29 03:57:00,57.2,51.4,30.09,SSW,208,0.0,0.0,81,0.00,,---,0.00,VWS V14.01,2013-05-29 07:57:00,
2013-05-29 04:02:00,57.0,51.3,30.09,SSW,208,0.0,2.7,81,0.00,,---,0.00,VWS V14.01,2013-05-29 08:02:00,
2013-05-29 04:07:00,57.2,51.4,30.09,SSW,208,0.0,0.0,81,0.00,,---,0.00,VWS V14.01,2013-05-29 08:07:00,
2013-05-29 04:12:00,57.2,51.4,30.09,SSW,208,0.0,0.0,81,0.00,,---,0.00,VWS V14.01,2013-05-29 08:12:00,
2013-05-29 04:17:00,57.2,51.4,30.09,SSW,208,0.0,0.0,81,0.00,,---,0.00,VWS V14.01,2013-05-29 08:17:00,
2013-05-29 04:22:00,57.0,51.3,30.09,SSW,208,0.0,0.0,81,0.00,,---,0.00,VWS V14.01,2013-05-29 08:22:00,
2013-05-29 04:27:00,57.0,51.3,30.09,SSW,208,0.0,0.0,81,0.00,,---,0.00,VWS V14.01,2013-05-29 08:27:00,
2013-05-29 04:32:00,57.0,51.3,30.09,SSW,208,0.0,0.0,81,0.00,,---,0.00,VWS V14.01,2013-05-29 08:32:00,
2013-05-29 04:37:00,57.0,51.3,30.09,SSW,208,0.0,0.0,81,0.00,,---,0.00,VWS V14.01,2013-05-29 08:37:00,
2013-05-29 04:42:00,57.0,51.3,30.09,SSW,208,0.0,0.0,81,0.00,,---,0.00,VWS V14.01,2013-05-29 08:42:00,
2013-05-29 04:47:00,57.0,51.3,30.09,SSW,208,0.0,0.0,81,0.00,,---,0.00,VWS V14.01,2013-05-29 08:47:00,
2013-05-29 04:52:00,57.0,51.3,30.09,SSW,208,0.0,0.0,81,0.00,,---,0.00,VWS V14.01,2013-05-29 08:52:00,
2013-05-29 04:57:00,57.0,51.3,30.09,SSW,208,0.0,0.0,81,0.00,,---,0.00,VWS V14.01,2013-05-29 08:57:00,
2013-05-29 05:02:00,57.0,51.3,30.09,SSW,208,0.0,0.0,81,0.00,,---,0.00,VWS V14.01,2013-05-29 09:02:00,
2013-05-29 05:07:00,57.0,51.3,30.09,SSW,208,0.0,0.0,81,0.00,,---,0.00,VWS V14.01,2013-05-29 09:07:00,
2013-05-29 05:12:00,57.0,51.3,30.09,SSW,208,0.0,0.0,81,0.00,,---,0.00,VWS V14.01,2013-05-29 09:12:00,
2013-05-29 05:17:00,57.0,51.3,30.09,SSW,208,0.0,0.0,81,0.00,,---,0.00,VWS V14.01,2013-05-29 09:17:00,
2013-05-29 05:22:00,57.0,51.3,30.09,SSW,208,0.0,0.0,81,0.00,,---,0.00,VWS V14.01,2013-05-29 09:22:00,
2013-05-29 05:27:00,57.0,51.3,30.09,SSW,208,0.0,0.0,81,0.00,,---,0.00,VWS V14.01,2013-05-29 09:27:00,
2013-05-29 05:32:00,57.0,51.3,30.09,SSW,208,0.0,0.0,81,0.00,,---,0.00,VWS V14.01,2013-05-29 09:32:00,
2013-05-29 05:37:00,57.0,51.3,30.09,SSW,208,0.0,0.0,81,0.00,,---,0.00,VWS V14.01,2013-05-29 09:37:00,
2013-05-29 05:42:00,57.0,51.3,30.09,SSW,208,0.0,0.0,81,0.00,,---,0.00,VWS V14.01,2013-05-29 09:42:00,
2013-05-29 05:47:00,57.0,51.3,30.09,SSW,208,0.0,0.0,81,0.00,,---,0.00,VWS V14.01,2013-05-29 09:47:00,
2013-05-29 05:52:00,57.0,51.3,30.09,SSW,208,0.0,0.0,81,0.00,,---,0.00,VWS V14.01,2013-05-29 09:52:00,
2013-05-29 05:57:00,57.0,51.3,30.09,SSW,208,0.0,0.0,81,0.00,,---,0.00,VWS V14.01,2013-05-29 09:57:00,
2013-05-29 06:02:00,57.0,51.3,30.09,SSW,208,0.0,0.0,81,0.00,,---,0.00,VWS V14.01,2013-05-29 10:02:00,
2013-05-29 06:07:00,57.0,51.3,30.09,SSW,208,0.0,0.0,81,0.00,,---,0.00,VWS V14.01,2013-05-29 10:07:00,
2013-05-29 06:12:00,57.0,51.6,30.09,SSW,208,0.0,0.0,82,0.00,,---,0.00,VWS V14.01,2013-05-29 10:12:00,
2013-05-29 06:17:00,57.0,51.6,30.09,SSW,208,0.0,0.0,82,0.00,,---,0.00,VWS V14.01,2013-05-29 10:17:00,
2013-05-29 06:22:00,57.0,51.6,30.09,SSW,208,0.0,0.0,82,0.00,,---,0.00,VWS V14.01,2013-05-29 10:22:00,
2013-05-29 06:27:00,57.0,51.6,30.09,SSW,208,0.0,0.0,82,0.00,,---,0.00,VWS V14.01,2013-05-29 10:27:00,
2013-05-29 06:32:00,57.0,51.6,30.09,SSW,208,0.0,0.0,82,0.00,,---,0.00,VWS V14.01,2013-05-29 10:32:00,
2013-05-29 06:37:00,57.0,51.6,30.09,SSW,208,0.0,0.0,82,0.00,,---,0.00,VWS V14.01,2013-05-29 10:37:00,
2013-05-29 06:42:00,57.0,51.6,30.09,SSW,208,0.0,0.0,82,0.00,,---,0.00,VWS V14.01,2013-05-29 10:42:00,
2013-05-29 06:47:00,57.0,51.6,30.09,SSW,208,0.0,0.0,82,0.00,,---,0.00,VWS V14.01,2013-05-29 10:47:00,
2013-05-29 06:52:00,57.0,51.6,30.09,SSW,208,0.0,0.0,82,0.00,,---,0.00,VWS V14.01,2013-05-29 10:52:00,
2013-05-29 06:57:00,57.0,51.6,30.09,SSW,208,0.0,0.0,82,0.00,,---,0.00,VWS V14.01,2013-05-29 10:57:00,
2013-05-29 07:02:00,57.0,51.6,30.09,SSW,208,0.0,0.0,82,0.00,,---,0.00,VWS V14.01,2013-05-29 11:02:00,
2013-05-29 07:07:00,57.0,51.6,30.09,SSW,208,0.0,0.0,82,0.00,,---,0.00,VWS V14.01,2013-05-29 11:07:00,
2013-05-29 07:12:00,57.2,51.8,30.09,SSW,208,0.0,0.0,82,0.00,,---,0.00,VWS V14.01,2013-05-29 11:12:00,
2013-05-29 07:17:00,57.2,51.8,30.09,SSW,208,0.0,3.1,82,0.00,,---,0.00,VWS V14.01,2013-05-29 11:17:00,
2013-05-29 07:22:00,57.2,51.8,30.09,SSW,208,0.0,0.0,82,0.00,,---,0.00,VWS V14.01,2013-05-29 11:22:00,
2013-05-29 07:27:00,57.2,51.8,30.09,SSW,208,0.0,0.0,82,0.00,,---,0.00,VWS V14.01,2013-05-29 11:27:00,
2013-05-29 07:32:00,57.2,51.8,30.09,SSW,208,0.0,0.0,82,0.00,,---,0.00,VWS V14.01,2013-05-29 11:32:00,
2013-05-29 07:37:00,57.2,51.8,30.09,SSW,208,0.0,0.0,82,0.00,,---,0.00,VWS V14.01,2013-05-29 11:37:00,
2013-05-29 07:42:00,57.2,51.8,30.09,SSW,208,0.0,0.0,82,0.00,,---,0.00,VWS V14.01,2013-05-29 11:42:00,
2013-05-29 07:47:00,57.4,51.9,30.09,SSW,208,0.0,0.0,82,0.00,,---,0.00,VWS V14.01,2013-05-29 11:47:00,
2013-05-29 07:52:00,57.6,52.1,30.09,SSW,209,0.0,0.0,82,0.00,,---,0.00,VWS V14.01,2013-05-29 11:52:00,
2013-05-29 07:57:00,57.6,52.1,30.09,SSW,208,0.0,0.0,82,0.00,,---,0.00,VWS V14.01,2013-05-29 11:57:00,
2013-05-29 08:02:00,57.6,52.1,30.09,SSW,208,0.0,0.0,82,0.00,,---,0.00,VWS V14.01,2013-05-29 12:02:00,
2013-05-29 08:07:00,57.7,52.3,30.09,SSW,208,0.0,0.0,82,0.00,,---,0.00,VWS V14.01,2013-05-29 12:07:00,
2013-05-29 08:12:00,57.7,52.3,30.09,SSW,208,0.0,0.0,82,0.00,,---,0.00,VWS V14.01,2013-05-29 12:12:00,
2013-05-29 08:17:00,57.7,52.3,30.09,SSW,208,0.0,0.0,82,0.00,,---,0.00,VWS V14.01,2013-05-29 12:17:00,
2013-05-29 08:22:00,57.9,52.5,30.09,SSW,208,0.0,0.0,82,0.00,,---,0.00,VWS V14.01,2013-05-29 12:22:00,
2013-05-29 08:27:00,57.9,52.8,30.09,SSW,208,0.0,0.0,83,0.00,,---,0.00,VWS V14.01,2013-05-29 12:27:00,
2013-05-29 08:32:00,58.1,53.0,30.09,SSW,208,0.0,0.0,83,0.00,,---,0.00,VWS V14.01,2013-05-29 12:32:00,
2013-05-29 08:37:00,58.3,52.8,30.09,SSW,209,0.0,0.0,82,0.00,,---,0.00,VWS V14.01,2013-05-29 12:37:00,
2013-05-29 08:42:00,58.3,52.8,30.09,SSW,208,0.0,2.7,82,0.00,,---,0.00,VWS V14.01,2013-05-29 12:42:00,
2013-05-29 08:47:00,58.5,53.0,30.09,SSW,208,0.0,3.1,82,0.00,,---,0.00,VWS V14.01,2013-05-29 12:47:00,
2013-05-29 08:52:00,58.6,53.2,30.09,SSW,208,2.7,2.7,82,0.00,,---,0.00,VWS V14.01,2013-05-29 12:52:00,
2013-05-29 08:57:00,58.8,53.3,30.09,SSW,208,0.0,0.0,82,0.00,,---,0.00,VWS V14.01,2013-05-29 12:57:00,
2013-05-29 09:02:00,59.0,53.5,30.09,SSW,208,0.0,0.0,82,0.00,,---,0.00,VWS V14.01,2013-05-29 13:02:00,
2013-05-29 09:07:00,59.0,53.5,30.09,SSW,208,0.0,0.0,82,0.00,,---,0.00,VWS V14.01,2013-05-29 13:07:00,
2013-05-29 09:12:00,59.2,53.7,30.09,SSW,208,0.0,0.0,82,0.00,,---,0.00,VWS V14.01,2013-05-29 13:12:00,
2013-05-29 09:17:00,59.2,53.7,30.09,SSW,208,0.0,0.0,82,0.00,,---,0.00,VWS V14.01,2013-05-29 13:17:00,
2013-05-29 09:22:00,59.4,54.2,30.09,SSW,208,0.0,0.0,83,0.00,,---,0.00,VWS V14.01,2013-05-29 13:22:00,
2013-05-29 09:27:00,59.5,54.4,30.09,SSW,208,0.0,0.0,83,0.00,,---,0.00,VWS V14.01,2013-05-29 13:27:00,
2013-05-29 09:32:00,59.7,54.6,30.09,SSW,208,0.0,0.0,83,0.00,,---,0.00,VWS V14.01,2013-05-29 13:32:00,
2013-05-29 09:37:00,59.9,54.7,30.09,SSW,208,0.0,0.0,83,0.00,,---,0.00,VWS V14.01,2013-05-29 13:37:00,
2013-05-29 09:42:00,60.3,54.8,30.09,SSW,208,3.6,3.6,82,0.00,,---,0.00,VWS V14.01,2013-05-29 13:42:00,
2013-05-29 09:47:00,60.4,54.9,30.09,SSW,208,0.0,0.0,82,0.00,,---,0.00,VWS V14.01,2013-05-29 13:47:00,
2013-05-29 09:52:00,60.6,55.1,30.09,SSW,208,0.0,0.0,82,0.00,,---,0.00,VWS V14.01,2013-05-29 13:52:00,
2013-05-29 09:57:00,60.6,55.1,30.09,SSW,208,0.0,0.0,82,0.00,,---,0.00,VWS V14.01,2013-05-29 13:57:00,
2013-05-29 10:03:00,60.6,55.1,30.09,SSW,208,0.0,0.0,82,0.00,,---,0.00,VWS V14.01,2013-05-29 14:03:00,
2013-05-29 10:08:00,60.4,54.9,30.09,SSW,208,0.0,3.6,82,0.00,,---,0.00,VWS V14.01,2013-05-29 14:08:00,
2013-05-29 10:13:00,60.4,54.9,30.09,SSW,208,0.0,0.0,82,0.00,,---,0.00,VWS V14.01,2013-05-29 14:13:00,
2013-05-29 10:18:00,60.4,54.9,30.09,SSW,208,0.0,0.0,82,0.00,,---,0.00,VWS V14.01,2013-05-29 14:18:00,
2013-05-29 10:23:00,60.6,55.1,30.09,SSW,208,0.0,3.1,82,0.00,,---,0.00,VWS V14.01,2013-05-29 14:23:00,
2013-05-29 10:28:00,61.0,55.5,30.09,SSW,208,2.7,3.6,82,0.00,,---,0.00,VWS V14.01,2013-05-29 14:28:00,
2013-05-29 10:33:00,61.5,56.0,30.09,SSW,208,0.0,4.0,82,0.00,,---,0.00,VWS V14.01,2013-05-29 14:33:00,
2013-05-29 10:38:00,61.9,56.3,30.09,SSW,208,0.0,0.0,82,0.00,,---,0.00,VWS V14.01,2013-05-29 14:38:00,
2013-05-29 10:43:00,62.2,56.7,30.09,SSW,208,0.0,3.6,82,0.00,,---,0.00,VWS V14.01,2013-05-29 14:43:00,
2013-05-29 10:48:00,62.8,57.2,30.09,SSW,208,0.0,3.1,82,0.00,,---,0.00,VWS V14.01,2013-05-29 14:48:00,
2013-05-29 10:53:00,63.3,57.7,30.09,West,274,2.7,7.4,82,0.00,,---,0.00,VWS V14.01,2013-05-29 14:53:00,
2013-05-29 10:58:00,63.7,58.1,30.09,West,274,3.6,3.6,82,0.00,,---,0.00,VWS V14.01,2013-05-29 14:58:00,
2013-05-29 11:03:00,64.4,58.8,30.09,WSW,250,3.1,4.9,82,0.00,,---,0.00,VWS V14.01,2013-05-29 15:03:00,
2013-05-29 11:08:00,65.1,59.5,30.09,WSW,252,0.0,5.4,82,0.00,,---,0.00,VWS V14.01,2013-05-29 15:08:00,
2013-05-29 11:13:00,66.2,60.5,30.09,West,264,0.0,6.9,82,0.00,,---,0.00,VWS V14.01,2013-05-29 15:13:00,
2013-05-29 11:18:00,66.0,60.0,30.09,SW,229,4.0,4.9,81,0.00,,---,0.00,VWS V14.01,2013-05-29 15:18:00,
2013-05-29 11:23:00,66.4,60.0,30.09,SW,236,3.1,4.5,80,0.00,,---,0.00,VWS V14.01,2013-05-29 15:23:00,
2013-05-29 11:28:00,66.6,59.8,30.09,SW,230,0.0,4.9,79,0.00,,---,0.00,VWS V14.01,2013-05-29 15:28:00,
2013-05-29 11:33:00,67.1,60.0,30.09,SW,230,0.0,3.6,78,0.00,,---,0.00,VWS V14.01,2013-05-29 15:33:00,
2013-05-29 11:38:00,67.8,60.7,30.09,SW,230,0.0,4.5,78,0.00,,---,0.00,VWS V14.01,2013-05-29 15:38:00,
2013-05-29 11:43:00,67.8,60.0,30.09,SW,230,0.0,0.0,76,0.00,,---,0.00,VWS V14.01,2013-05-29 15:43:00,
2013-05-29 11:48:00,68.5,60.3,30.09,SW,230,0.0,3.6,75,0.00,,---,0.00,VWS V14.01,2013-05-29 15:48:00,
2013-05-29 11:53:00,69.6,60.6,30.09,WSW,254,0.0,4.5,73,0.00,,---,0.00,VWS V14.01,2013-05-29 15:53:00,
2013-05-29 11:58:00,70.7,61.2,30.09,WSW,253,3.1,4.0,72,0.00,,---,0.00,VWS V14.01,2013-05-29 15:58:00,
2013-05-29 12:03:00,71.2,61.0,30.09,West,276,3.6,6.7,70,0.00,,---,0.00,VWS V14.01,2013-05-29 16:03:00,
2013-05-29 12:08:00,72.0,60.4,30.09,WSW,237,3.1,5.4,67,0.00,,---,0.00,VWS V14.01,2013-05-29 16:08:00,
2013-05-29 12:13:00,72.5,57.4,30.09,West,270,0.0,4.5,59,0.00,,---,0.00,VWS V14.01,2013-05-29 16:13:00,
2013-05-29 12:18:00,73.2,54.0,30.09,SSE,159,0.0,4.0,51,0.00,,---,0.00,VWS V14.01,2013-05-29 16:18:00,
2013-05-29 12:23:00,73.8,52.9,30.06,SW,229,0.0,2.7,48,0.00,,---,0.00,VWS V14.01,2013-05-29 16:23:00,
2013-05-29 12:28:00,74.5,52.4,30.06,SW,215,0.0,3.1,46,0.00,,---,0.00,VWS V14.01,2013-05-29 16:28:00,
2013-05-29 12:33:00,74.8,50.9,30.06,SSW,198,0.0,2.7,43,0.00,,---,0.00,VWS V14.01,2013-05-29 16:33:00,
2013-05-29 12:38:00,75.2,50.6,30.06,SSW,197,0.0,0.0,42,0.00,,---,0.00,VWS V14.01,2013-05-29 16:38:00,
2013-05-29 12:43:00,75.6,48.2,30.06,SSW,210,0.0,6.3,38,0.00,,---,0.00,VWS V14.01,2013-05-29 16:43:00,
2013-05-29 12:48:00,75.2,45.7,30.06,SE,130,0.0,5.8,35,0.00,,---,0.00,VWS V14.01,2013-05-29 16:48:00,
2013-05-29 12:53:00,75.6,48.2,30.06,WSW,237,0.0,3.6,38,0.00,,---,0.00,VWS V14.01,2013-05-29 16:53:00,
2013-05-29 12:58:00,76.1,48.7,30.06,SSW,200,0.0,4.5,38,0.00,,---,0.00,VWS V14.01,2013-05-29 16:58:00,
2013-05-29 13:03:00,76.8,47.9,30.06,South,187,0.0,3.1,36,0.00,,---,0.00,VWS V14.01,2013-05-29 17:03:00,
2013-05-29 13:08:00,77.2,48.9,30.06,SSW,208,0.0,6.9,37,0.00,,---,0.00,VWS V14.01,2013-05-29 17:08:00,
2013-05-29 13:13:00,77.4,47.6,30.06,SW,223,0.0,0.0,35,0.00,,---,0.00,VWS V14.01,2013-05-29 17:13:00,
2013-05-29 13:18:00,77.5,47.8,30.06,WSW,254,0.0,6.7,35,0.00,,---,0.00,VWS V14.01,2013-05-29 17:18:00,
2013-05-29 13:23:00,78.4,47.8,30.06,WSW,252,3.1,6.9,34,0.08,,---,0.08,VWS V14.01,2013-05-29 17:23:00,
2013-05-29 13:28:00,78.6,46.3,30.06,West,271,0.0,6.9,32,0.08,,---,0.08,VWS V14.01,2013-05-29 17:28:00,
2013-05-29 13:33:00,79.0,46.6,30.06,SW,235,2.7,6.7,32,0.08,,---,0.08,VWS V14.01,2013-05-29 17:33:00,
2013-05-29 13:38:00,79.5,46.3,30.06,NW,319,0.0,7.8,31,0.08,,---,0.08,VWS V14.01,2013-05-29 17:38:00,
2013-05-29 13:43:00,79.5,46.3,30.06,SW,215,0.0,5.4,31,0.08,,---,0.08,VWS V14.01,2013-05-29 17:43:00,
2013-05-29 13:48:00,80.4,46.2,30.06,West,267,4.9,6.3,30,0.08,,---,0.08,VWS V14.01,2013-05-29 17:48:00,
2013-05-29 13:53:00,81.0,46.6,30.06,WSW,254,0.0,6.3,30,0.08,,---,0.08,VWS V14.01,2013-05-29 17:53:00,
2013-05-29 13:58:00,82.0,46.7,30.06,WNW,285,4.0,10.1,29,0.08,,---,0.08,VWS V14.01,2013-05-29 17:58:00,
2013-05-29 14:03:00,82.0,44.8,30.06,West,280,0.0,9.6,27,0.08,,---,0.08,VWS V14.01,2013-05-29 18:03:00,
2013-05-29 14:08:00,81.5,44.3,30.06,WNW,283,6.9,9.2,27,0.08,,---,0.08,VWS V14.01,2013-05-29 18:08:00,
2013-05-29 14:13:00,80.1,43.1,30.06,SW,219,5.4,7.8,27,0.08,,---,0.08,VWS V14.01,2013-05-29 18:13:00,
2013-05-29 14:18:00,79.3,44.4,30.06,SSW,209,6.3,7.8,29,0.08,,---,0.08,VWS V14.01,2013-05-29 18:18:00,
2013-05-29 14:23:00,79.3,45.2,30.06,WSW,256,2.7,7.4,30,0.08,,---,0.08,VWS V14.01,2013-05-29 18:23:00,
2013-05-29 14:28:00,79.9,45.7,30.06,WSW,257,6.3,7.4,30,0.00,,---,0.08,VWS V14.01,2013-05-29 18:28:00,
2013-05-29 14:33:00,80.2,46.0,30.06,WSW,245,0.0,6.9,30,0.00,,---,0.08,VWS V14.01,2013-05-29 18:33:00,
2013-05-29 14:38:00,81.1,46.8,30.03,SSW,202,3.6,6.9,30,0.00,,---,0.08,VWS V14.01,2013-05-29 18:38:00,
2013-05-29 14:44:00,81.7,46.4,30.03,WNW,301,3.6,9.6,29,0.00,,---,0.08,VWS V14.01,2013-05-29 18:44:00,
2013-05-29 14:49:00,81.9,45.6,30.03,WSW,249,8.7,8.7,28,0.00,,---,0.08,VWS V14.01,2013-05-29 18:49:00,
2013-05-29 14:54:00,82.4,45.1,30.03,SSW,202,7.4,11.0,27,0.00,,---,0.08,VWS V14.01,2013-05-29 18:54:00,
2013-05-29 14:59:00,82.2,44.9,30.03,WNW,294,3.6,11.6,27,0.00,,---,0.08,VWS V14.01,2013-05-29 18:59:00,
2013-05-29 15:04:00,82.2,44.9,30.03,SW,216,3.1,6.9,27,0.00,,---,0.08,VWS V14.01,2013-05-29 19:04:00,
2013-05-29 15:09:00,82.9,47.5,30.03,WNW,285,6.7,11.0,29,0.00,,---,0.08,VWS V14.01,2013-05-29 19:09:00,
2013-05-29 15:14:00,83.7,47.1,30.03,West,280,2.7,6.7,28,0.00,,---,0.08,VWS V14.01,2013-05-29 19:14:00,
2013-05-29 15:19:00,83.8,43.2,30.03,West,265,5.4,11.0,24,0.00,,---,0.08,VWS V14.01,2013-05-29 19:19:00,
2013-05-29 15:24:00,83.8,42.1,30.03,WNW,286,6.3,7.4,23,0.00,,---,0.08,VWS V14.01,2013-05-29 19:24:00,
2013-05-29 15:29:00,84.0,42.3,30.03,West,277,6.7,8.7,23,0.00,,---,0.08,VWS V14.01,2013-05-29 19:29:00,
2013-05-29 15:34:00,83.5,40.7,30.03,NNE,14,4.5,8.3,22,0.00,,---,0.08,VWS V14.01,2013-05-29 19:34:00,
2013-05-29 15:39:00,83.3,41.7,30.03,West,270,6.3,7.8,23,0.00,,---,0.08,VWS V14.01,2013-05-29 19:39:00,
2013-05-29 15:44:00,83.5,41.8,30.03,WSW,256,0.0,8.3,23,0.00,,---,0.08,VWS V14.01,2013-05-29 19:44:00,
2013-05-29 15:49:00,83.5,42.9,30.03,SW,221,0.0,7.8,24,0.00,,---,0.08,VWS V14.01,2013-05-29 19:49:00,
2013-05-29 15:54:00,83.3,42.8,30.03,SSW,202,5.8,6.7,24,0.00,,---,0.08,VWS V14.01,2013-05-29 19:54:00,
2013-05-29 15:59:00,82.8,43.4,30.03,WNW,301,6.9,12.1,25,0.00,,---,0.08,VWS V14.01,2013-05-29 19:59:00,
2013-05-29 16:04:00,82.6,44.3,30.03,West,273,3.6,8.3,26,0.00,,---,0.08,VWS V14.01,2013-05-29 20:04:00,
2013-05-29 16:09:00,82.6,44.3,30.03,WSW,239,0.0,10.5,26,0.00,,---,0.08,VWS V14.01,2013-05-29 20:09:00,
2013-05-29 16:14:00,82.6,45.2,30.03,SSW,209,4.0,7.8,27,0.00,,---,0.08,VWS V14.01,2013-05-29 20:14:00,
2013-05-29 16:19:00,82.6,46.2,30.03,SW,235,0.0,7.4,28,0.00,,---,0.08,VWS V14.01,2013-05-29 20:19:00,
2013-05-29 16:24:00,82.4,46.1,30.03,SE,145,3.6,6.9,28,0.00,,---,0.08,VWS V14.01,2013-05-29 20:24:00,
2013-05-29 16:29:00,81.7,46.4,30.03,SE,144,0.0,5.8,29,0.00,,---,0.08,VWS V14.01,2013-05-29 20:29:00,
2013-05-29 16:34:00,81.3,47.0,30.03,SE,144,0.0,0.0,30,0.00,,---,0.08,VWS V14.01,2013-05-29 20:34:00,
2013-05-29 16:39:00,81.1,46.8,30.03,SSE,149,0.0,4.0,30,0.00,,---,0.08,VWS V14.01,2013-05-29 20:39:00,
2013-05-29 16:44:00,81.0,47.5,30.03,WSW,237,3.1,3.6,31,0.00,,---,0.08,VWS V14.01,2013-05-29 20:44:00,
2013-05-29 16:49:00,80.8,47.4,30.03,SSW,207,0.0,6.7,31,0.00,,---,0.08,VWS V14.01,2013-05-29 20:49:00,
2013-05-29 16:54:00,80.6,46.3,30.03,SSW,209,0.0,0.0,30,0.00,,---,0.08,VWS V14.01,2013-05-29 20:54:00,
2013-05-29 16:59:00,80.6,47.2,30.03,NNW,332,0.0,4.5,31,0.00,,---,0.08,VWS V14.01,2013-05-29 20:59:00,
2013-05-29 17:04:00,80.8,46.5,30.03,WSW,250,0.0,7.8,30,0.00,,---,0.08,VWS V14.01,2013-05-29 21:04:00,
2013-05-29 17:09:00,81.0,45.8,30.03,West,263,3.6,9.2,29,0.00,,---,0.08,VWS V14.01,2013-05-29 21:09:00,
2013-05-29 17:14:00,81.7,45.4,30.03,SW,233,4.5,7.8,28,0.00,,---,0.08,VWS V14.01,2013-05-29 21:14:00,
2013-05-29 17:19:00,82.6,43.2,30.03,SW,236,4.0,8.7,25,0.00,,---,0.08,VWS V14.01,2013-05-29 21:19:00,
2013-05-29 17:24:00,82.4,42.0,30.03,NW,316,4.9,10.5,24,0.00,,---,0.08,VWS V14.01,2013-05-29 21:24:00,
2013-05-29 17:29:00,81.7,42.5,30.03,SW,218,2.7,8.3,25,0.00,,---,0.08,VWS V14.01,2013-05-29 21:29:00,
2013-05-29 17:34:00,81.7,43.5,30.03,WSW,257,4.5,8.7,26,0.00,,---,0.08,VWS V14.01,2013-05-29 21:34:00,
2013-05-29 17:39:00,82.0,43.8,30.03,SW,226,3.1,5.8,26,0.00,,---,0.08,VWS V14.01,2013-05-29 21:39:00,
2013-05-29 17:44:00,82.8,43.4,30.03,SSW,202,3.1,6.7,25,0.00,,---,0.08,VWS V14.01,2013-05-29 21:44:00,
2013-05-29 17:49:00,83.5,42.9,30.03,SW,229,3.1,6.7,24,0.00,,---,0.08,VWS V14.01,2013-05-29 21:49:00,
2013-05-29 17:54:00,83.7,42.0,30.00,WSW,240,6.3,11.2,23,0.00,,---,0.08,VWS V14.01,2013-05-29 21:54:00,
2013-05-29 17:59:00,83.5,40.7,30.00,WSW,243,3.1,9.2,22,0.00,,---,0.08,VWS V14.01,2013-05-29 21:59:00,
2013-05-29 18:04:00,83.1,41.5,30.00,SW,230,4.0,7.4,23,0.00,,---,0.08,VWS V14.01,2013-05-29 22:04:00,
2013-05-29 18:09:00,83.3,41.7,30.00,SSW,198,3.6,6.7,23,0.00,,---,0.08,VWS V14.01,2013-05-29 22:09:00,
2013-05-29 18:14:00,83.5,41.8,30.00,SSW,203,5.8,6.9,23,0.00,,---,0.08,VWS V14.01,2013-05-29 22:14:00,
2013-05-29 18:20:00,83.3,41.7,30.00,SSW,208,5.4,7.8,23,0.00,,---,0.08,VWS V14.01,2013-05-29 22:20:00,
2013-05-29 18:25:00,82.8,41.2,30.00,SW,234,5.4,7.4,23,0.00,,---,0.08,VWS V14.01,2013-05-29 22:25:00,
2013-05-29 18:30:00,82.0,41.7,30.00,SSW,205,3.1,6.7,24,0.00,,---,0.08,VWS V14.01,2013-05-29 22:30:00,
2013-05-29 18:35:00,82.0,41.7,30.00,SSW,213,4.0,8.7,24,0.00,,---,0.08,VWS V14.01,2013-05-29 22:35:00,
2013-05-29 18:40:00,82.0,42.8,30.00,SSW,200,5.4,8.7,25,0.00,,---,0.08,VWS V14.01,2013-05-29 22:40:00,
2013-05-29 18:45:00,81.9,43.7,30.00,SSW,199,4.9,6.9,26,0.00,,---,0.08,VWS V14.01,2013-05-29 22:45:00,
2013-05-29 18:50:00,81.7,45.4,30.00,South,188,4.5,4.5,28,0.00,,---,0.08,VWS V14.01,2013-05-29 22:50:00,
2013-05-29 18:55:00,81.3,46.1,30.00,SSE,154,2.7,6.3,29,0.00,,---,0.08,VWS V14.01,2013-05-29 22:55:00,
2013-05-29 19:00:00,81.0,45.8,30.00,SSE,149,3.1,6.7,29,0.00,,---,0.12,VWS V14.01,2013-05-29 23:00:00,
2013-05-29 19:05:00,80.6,46.3,30.00,SSE,155,4.5,7.4,30,0.00,,---,0.08,VWS V14.01,2013-05-29 23:05:00,
2013-05-29 19:10:00,80.2,46.0,30.00,SSE,165,0.0,0.0,30,0.00,,---,0.08,VWS V14.01,2013-05-29 23:10:00,
2013-05-29 19:15:00,79.7,45.6,30.00,SSE,151,0.0,5.4,30,0.00,,---,0.08,VWS V14.01,2013-05-29 23:15:00,
2013-05-29 19:20:00,79.3,46.1,30.00,SSE,151,0.0,0.0,31,0.00,,---,0.08,VWS V14.01,2013-05-29 23:20:00,
2013-05-29 19:25:00,79.2,46.0,30.00,SSE,152,0.0,0.0,31,0.00,,---,0.08,VWS V14.01,2013-05-29 23:25:00,
2013-05-29 19:30:00,79.0,46.6,30.00,SSE,151,0.0,0.0,32,0.00,,---,0.08,VWS V14.01,2013-05-29 23:30:00,
2013-05-29 19:35:00,78.6,46.3,30.00,South,169,0.0,0.0,32,0.00,,---,0.08,VWS V14.01,2013-05-29 23:35:00,
2013-05-29 19:40:00,78.3,46.8,30.00,SSE,166,0.0,0.0,33,0.00,,---,0.08,VWS V14.01,2013-05-29 23:40:00,
2013-05-29 19:45:00,77.7,47.1,30.00,SSE,166,0.0,0.0,34,0.00,,---,0.08,VWS V14.01,2013-05-29 23:45:00,
2013-05-29 19:50:00,77.2,47.4,30.00,SSE,165,0.0,0.0,35,0.00,,---,0.08,VWS V14.01,2013-05-29 23:50:00,
2013-05-29 19:55:00,76.8,47.1,30.00,SSE,154,0.0,0.0,35,0.00,,---,0.08,VWS V14.01,2013-05-29 23:55:00,
2013-05-29 20:00:00,76.5,47.5,30.00,SSE,155,0.0,0.0,36,0.00,,---,0.12,VWS V14.01,2013-05-30 00:00:00,
2013-05-29 20:05:00,75.9,48.5,30.00,SSE,155,0.0,0.0,38,0.00,,---,0.08,VWS V14.01,2013-05-30 00:05:00,
2013-05-29 20:10:00,75.4,49.4,30.03,SSE,155,0.0,0.0,40,0.00,,---,0.08,VWS V14.01,2013-05-30 00:10:00,
2013-05-29 20:15:00,75.2,49.9,30.03,SSE,155,0.0,0.0,41,0.00,,---,0.08,VWS V14.01,2013-05-30 00:15:00,
2013-05-29 20:20:00,74.8,50.2,30.03,SSE,155,0.0,2.7,42,0.00,,---,0.08,VWS V14.01,2013-05-30 00:20:00,
2013-05-29 20:25:00,74.7,50.1,30.00,SSE,155,0.0,4.5,42,0.00,,---,0.08,VWS V14.01,2013-05-30 00:25:00,
2013-05-29 20:30:00,74.5,50.5,30.00,SSE,155,0.0,0.0,43,0.00,,---,0.08,VWS V14.01,2013-05-30 00:30:00,
2013-05-29 20:35:00,74.3,50.4,30.00,SSE,155,0.0,0.0,43,0.00,,---,0.08,VWS V14.01,2013-05-30 00:35:00,
2013-05-29 20:40:00,74.1,50.2,30.00,SSE,155,0.0,0.0,43,0.00,,---,0.08,VWS V14.01,2013-05-30 00:40:00,
2013-05-29 20:45:00,73.9,50.7,30.00,SSE,155,0.0,0.0,44,0.00,,---,0.08,VWS V14.01,2013-05-30 00:45:00,
2013-05-29 20:50:00,73.6,50.3,30.00,SSE,155,0.0,0.0,44,0.00,,---,0.08,VWS V14.01,2013-05-30 00:50:00,
2013-05-29 20:55:00,73.6,50.3,30.00,SSE,155,0.0,0.0,44,0.00,,---,0.08,VWS V14.01,2013-05-30 00:55:00,
2013-05-29 21:00:00,73.4,50.2,30.00,SSE,155,0.0,0.0,44,0.00,,---,0.08,VWS V14.01,2013-05-30 01:00:00,
2013-05-29 21:05:00,73.2,50.6,30.00,SSE,155,0.0,3.6,45,0.00,,---,0.08,VWS V14.01,2013-05-30 01:05:00,
2013-05-29 21:10:00,73.0,50.5,30.00,SSE,155,0.0,0.0,45,0.00,,---,0.08,VWS V14.01,2013-05-30 01:10:00,
2013-05-29 21:15:00,72.7,50.7,30.00,SSE,155,0.0,0.0,46,0.00,,---,0.08,VWS V14.01,2013-05-30 01:15:00,
2013-05-29 21:20:00,72.1,50.8,30.00,SSE,155,0.0,0.0,47,0.00,,---,0.08,VWS V14.01,2013-05-30 01:20:00,
2013-05-29 21:25:00,71.6,51.5,30.03,SSE,155,0.0,0.0,49,0.00,,---,0.08,VWS V14.01,2013-05-30 01:25:00,
2013-05-29 21:30:00,71.6,52.0,30.03,SSE,155,0.0,0.0,50,0.00,,---,0.08,VWS V14.01,2013-05-30 01:30:00,
2013-05-29 21:35:00,71.4,52.4,30.03,SSE,155,0.0,0.0,51,0.00,,---,0.08,VWS V14.01,2013-05-30 01:35:00,
2013-05-29 21:40:00,71.2,52.7,30.03,SSE,155,0.0,0.0,52,0.00,,---,0.08,VWS V14.01,2013-05-30 01:40:00,
2013-05-29 21:45:00,71.2,53.8,30.03,SSE,155,0.0,0.0,54,0.00,,---,0.08,VWS V14.01,2013-05-30 01:45:00,
2013-05-29 21:50:00,71.2,54.3,30.03,SSE,155,0.0,0.0,55,0.00,,---,0.08,VWS V14.01,2013-05-30 01:50:00,
2013-05-29 21:55:00,71.4,54.4,30.03,SSE,155,0.0,0.0,55,0.00,,---,0.08,VWS V14.01,2013-05-30 01:55:00,
2013-05-29 22:00:00,71.2,54.3,30.03,SSE,155,0.0,0.0,55,0.00,,---,0.08,VWS V14.01,2013-05-30 02:00:00,
2013-05-29 22:05:00,71.2,54.3,30.03,SSE,155,0.0,0.0,55,0.00,,---,0.08,VWS V14.01,2013-05-30 02:05:00,
2013-05-29 22:10:00,71.2,54.3,30.03,SSE,155,0.0,0.0,55,0.00,,---,0.08,VWS V14.01,2013-05-30 02:10:00,
2013-05-29 22:15:00,71.2,54.3,30.03,SSE,155,0.0,0.0,55,0.00,,---,0.08,VWS V14.01,2013-05-30 02:15:00,
2013-05-29 22:20:00,71.1,53.6,30.06,SSE,155,0.0,0.0,54,0.00,,---,0.08,VWS V14.01,2013-05-30 02:20:00,
2013-05-29 22:25:00,70.5,53.6,30.06,SSE,155,0.0,2.7,55,0.00,,---,0.08,VWS V14.01,2013-05-30 02:25:00,
2013-05-29 22:30:00,70.5,54.6,30.06,SSE,155,0.0,0.0,57,0.00,,---,0.08,VWS V14.01,2013-05-30 02:30:00,
2013-05-29 22:35:00,70.3,54.9,30.06,SSE,155,0.0,0.0,58,0.00,,---,0.08,VWS V14.01,2013-05-30 02:35:00,
2013-05-29 22:41:00,70.0,55.5,30.06,SSE,155,0.0,0.0,60,0.00,,---,0.08,VWS V14.01,2013-05-30 02:41:00,
2013-05-29 22:46:00,70.0,56.4,30.06,SSE,155,0.0,0.0,62,0.00,,---,0.08,VWS V14.01,2013-05-30 02:46:00,
2013-05-29 22:51:00,70.2,57.4,30.06,SSE,155,0.0,2.7,64,0.00,,---,0.08,VWS V14.01,2013-05-30 02:51:00,
2013-05-29 22:56:00,70.0,57.3,30.06,SSE,155,3.1,4.0,64,0.00,,---,0.08,VWS V14.01,2013-05-30 02:56:00,
2013-05-29 23:01:00,70.2,57.9,30.06,SSE,155,0.0,0.0,65,0.00,,---,0.08,VWS V14.01,2013-05-30 03:01:00,
2013-05-29 23:06:00,70.3,58.0,30.06,SSE,155,0.0,3.6,65,0.00,,---,0.08,VWS V14.01,2013-05-30 03:06:00,
2013-05-29 23:11:00,70.3,57.6,30.06,SSE,155,4.5,5.4,64,0.00,,---,0.08,VWS V14.01,2013-05-30 03:11:00,
2013-05-29 23:16:00,70.3,57.6,30.06,SSE,155,3.6,3.6,64,0.00,,---,0.08,VWS V14.01,2013-05-30 03:16:00,
2013-05-29 23:21:00,70.2,57.0,30.09,SSE,155,2.7,3.1,63,0.00,,---,0.08,VWS V14.01,2013-05-30 03:21:00,
2013-05-29 23:26:00,70.0,56.4,30.09,SSE,155,2.7,2.7,62,0.00,,---,0.08,VWS V14.01,2013-05-30 03:26:00,
2013-05-29 23:31:00,69.8,55.3,30.09,SSE,155,0.0,0.0,60,0.00,,---,0.08,VWS V14.01,2013-05-30 03:31:00,
2013-05-29 23:36:00,69.6,55.1,30.09,SSE,155,0.0,2.7,60,0.00,,---,0.08,VWS V14.01,2013-05-30 03:36:00,
2013-05-29 23:41:00,69.4,55.0,30.09,SSE,155,0.0,0.0,60,0.00,,---,0.08,VWS V14.01,2013-05-30 03:41:00,
2013-05-29 23:46:00,69.4,54.5,30.09,SSE,155,0.0,2.7,59,0.00,,---,0.08,VWS V14.01,2013-05-30 03:46:00,
2013-05-29 23:51:00,69.4,54.5,30.09,SSE,155,0.0,0.0,59,0.00,,---,0.08,VWS V14.01,2013-05-30 03:51:00,